| time (UTC) | temp F | wind direction | speed MPH | gust MPH | rain 1hr in | rain 24hr in | rain mn in | humidity % | barometer mb |
| 20260504022915 | 44 | 115 | 0.0 | 4.0 | 0.00 | 0.00 | 0.00 | 84 | 1006.0 |
| 20260504022411 | 44 | 235 | 2.0 | 3.0 | 0.00 | 0.00 | 0.00 | 83 | 1006.0 |
| 20260504021908 | 44 | 198 | 2.0 | 2.0 | 0.00 | 0.00 | 0.00 | 83 | 1006.0 |
| 20260504021405 | 44 | 210 | 0.0 | 4.0 | 0.00 | 0.00 | 0.00 | 82 | 1006.1 |
| 20260504020903 | 44 | 185 | 0.0 | 0.0 | 0.00 | 0.00 | 0.00 | 82 | 1006.3 |
| 20260504020359 | 44 | 164 | 0.0 | 1.0 | 0.00 | 0.00 | 0.00 | 81 | 1006.1 |
| 20260504015855 | 44 | 148 | 0.0 | 1.0 | 0.00 | 0.00 | 0.00 | 81 | 1006.4 |
| 20260504015351 | 44 | 179 | 0.0 | 1.0 | 0.00 | 0.00 | 0.00 | 80 | 1006.3 |
| 20260504014847 | 44 | 172 | 2.0 | 3.0 | 0.00 | 0.00 | 0.00 | 80 | 1006.3 |
| 20260504014343 | 44 | 183 | 1.0 | 2.0 | 0.00 | 0.00 | 0.00 | 80 | 1006.3 |
| 20260504013841 | 44 | 172 | 0.0 | 2.0 | 0.00 | 0.00 | 0.00 | 79 | 1006.4 |
| 20260504013339 | 44 | 122 | 0.0 | 1.0 | 0.00 | 0.00 | 0.00 | 79 | 1006.5 |
| 20260504012836 | 44 | 156 | 1.0 | 4.0 | 0.00 | 0.00 | 0.00 | 79 | 1006.5 |
| 20260504012333 | 44 | 172 | 0.0 | 2.0 | 0.00 | 0.00 | 0.00 | 79 | 1006.4 |
| 20260504011831 | 44 | 175 | 0.0 | 3.0 | 0.00 | 0.00 | 0.00 | 78 | 1006.4 |
| 20260504011327 | 44 | 127 | 1.0 | 3.0 | 0.00 | 0.00 | 0.00 | 78 | 1006.3 |
| 20260504010823 | 44 | 190 | 1.0 | 3.0 | 0.00 | 0.00 | 0.00 | 78 | 1006.2 |
| 20260504010319 | 44 | 160 | 1.0 | 2.0 | 0.00 | 0.00 | 0.00 | 77 | 1006.4 |
| 20260504005815 | 44 | 218 | 1.0 | 2.0 | 0.00 | 0.00 | 0.00 | 77 | 1006.4 |
| 20260504005312 | 44 | 199 | 0.0 | 1.0 | 0.00 | 0.00 | 0.00 | 77 | 1006.4 |
| 20260504004810 | 44 | 198 | 2.0 | 3.0 | 0.00 | 0.00 | 0.00 | 76 | 1006.4 |
| 20260504004308 | 44 | 166 | 2.0 | 4.0 | 0.00 | 0.00 | 0.00 | 76 | 1006.3 |
| 20260504003804 | 44 | 244 | 0.0 | 3.0 | 0.00 | 0.00 | 0.00 | 76 | 1006.5 |
| 20260504003301 | 44 | 343 | 1.0 | 2.0 | 0.00 | 0.00 | 0.00 | 75 | 1006.5 |
| 20260504002757 | 44 | 159 | 1.0 | 4.0 | 0.00 | 0.00 | 0.00 | 75 | 1006.2 |
| 20260504002254 | 44 | 153 | 0.0 | 6.0 | 0.00 | 0.00 | 0.00 | 75 | 1006.4 |
| 20260504001752 | 45 | 201 | 0.0 | 4.0 | 0.00 | 0.00 | 0.00 | 74 | 1006.1 |
| 20260504001249 | 45 | 145 | 1.0 | 4.0 | 0.00 | 0.00 | 0.00 | 74 | 1006.2 |
| 20260504000746 | 45 | 258 | 2.0 | 3.0 | 0.00 | 0.00 | 0.00 | 73 | 1006.2 |
| 20260504000243 | 45 | 191 | 1.0 | 2.0 | 0.00 | 0.00 | 0.00 | 74 | 1006.1 |
| 20260503235741 | 45 | 165 | 1.0 | 6.0 | 0.00 | 0.00 | 0.00 | 74 | 1006.1 |
| 20260503235237 | 45 | 200 | 1.0 | 2.0 | 0.00 | 0.00 | 0.00 | 74 | 1006.3 |
| 20260503234735 | 45 | 166 | 0.0 | 2.0 | 0.00 | 0.00 | 0.00 | 75 | 1006.1 |
| 20260503234233 | 45 | 196 | 0.0 | 2.0 | 0.00 | 0.00 | 0.00 | 75 | 1006.2 |
| 20260503233730 | 45 | 159 | 1.0 | 4.0 | 0.00 | 0.00 | 0.00 | 74 | 1006.3 |
| 20260503233225 | 45 | 175 | 5.0 | 8.0 | 0.00 | 0.00 | 0.00 | 73 | 1006.5 |
| 20260503232723 | 46 | 190 | 1.0 | 4.0 | 0.00 | 0.00 | 0.00 | 71 | 1006.3 |
| 20260503232220 | 46 | 167 | 2.0 | 2.0 | 0.00 | 0.00 | 0.00 | 71 | 1006.4 |
| 20260503231718 | 46 | 184 | 2.0 | 3.0 | 0.00 | 0.00 | 0.00 | 70 | 1006.2 |
| 20260503231215 | 46 | 197 | 1.0 | 6.0 | 0.00 | 0.00 | 0.00 | 69 | 1006.2 |
| 20260503230711 | 47 | 154 | 2.0 | 6.0 | 0.00 | 0.00 | 0.00 | 64 | 1006.1 |
| 20260503230208 | 48 | 222 | 4.0 | 9.0 | 0.00 | 0.00 | 0.00 | 60 | 1006.3 |
| 20260503225705 | 48 | 142 | 2.0 | 7.0 | 0.00 | 0.00 | 0.00 | 57 | 1006.2 |
| 20260503225206 | 49 | 234 | 0.0 | 6.0 | 0.00 | 0.00 | 0.00 | 54 | 1006.1 |
| 20260503224703 | 50 | 210 | 3.0 | 11.0 | 0.00 | 0.00 | 0.00 | 51 | 1005.9 |
| 20260503224201 | 51 | 186 | 2.0 | 6.0 | 0.00 | 0.00 | 0.00 | 47 | 1006.0 |
| 20260503223658 | 51 | 207 | 4.0 | 9.0 | 0.00 | 0.00 | 0.00 | 45 | 1005.7 |
| 20260503223155 | 51 | 248 | 3.0 | 7.0 | 0.00 | 0.00 | 0.00 | 43 | 1005.9 |
| 20260503222652 | 51 | 106 | 1.0 | 9.0 | 0.00 | 0.00 | 0.00 | 43 | 1005.7 |
| 20260503222149 | 52 | 254 | 3.0 | 7.0 | 0.00 | 0.00 | 0.00 | 42 | 1006.1 |
| 20260503221648 | 51 | 214 | 1.0 | 2.0 | 0.00 | 0.00 | 0.00 | 43 | 1005.7 |
| 20260503221145 | 52 | 338 | 1.0 | 6.0 | 0.00 | 0.00 | 0.00 | 42 | 1005.9 |
| 20260503220642 | 52 | 283 | 2.0 | 4.0 | 0.00 | 0.00 | 0.00 | 41 | 1005.9 |
| 20260503220138 | 52 | 183 | 0.0 | 2.0 | 0.00 | 0.00 | 0.00 | 40 | 1006.0 |
| 20260503215636 | 52 | 45 | 1.0 | 2.0 | 0.00 | 0.00 | 0.00 | 39 | 1005.8 |
| 20260503215132 | 52 | 292 | 0.0 | 4.0 | 0.00 | 0.00 | 0.00 | 39 | 1006.0 |
| 20260503214631 | 52 | 228 | 5.0 | 7.0 | 0.00 | 0.00 | 0.00 | 37 | 1006.0 |
| 20260503214126 | 53 | 134 | 4.0 | 8.0 | 0.00 | 0.00 | 0.00 | 37 | 1005.7 |
| 20260503213626 | 53 | 187 | 4.0 | 7.0 | 0.00 | 0.00 | 0.00 | 37 | 1005.9 |
| 20260503213122 | 53 | 260 | 2.0 | 3.0 | 0.00 | 0.00 | 0.00 | 37 | 1005.6 |
| 20260503212619 | 53 | 224 | 4.0 | 6.0 | 0.00 | 0.00 | 0.00 | 36 | 1005.6 |
| 20260503212117 | 53 | 167 | 1.0 | 2.0 | 0.00 | 0.00 | 0.00 | 36 | 1005.7 |
| 20260503211614 | 53 | 201 | 2.0 | 6.0 | 0.00 | 0.00 | 0.00 | 36 | 1005.9 |
| 20260503211110 | 54 | 201 | 3.0 | 6.0 | 0.00 | 0.00 | 0.00 | 35 | 1005.7 |
| 20260503210606 | 55 | 195 | 1.0 | 7.0 | 0.00 | 0.00 | 0.00 | 34 | 1005.8 |
| 20260503205559 | 55 | 229 | 0.0 | 8.0 | 0.00 | 0.00 | 0.00 | 34 | 1005.8 |
| 20260503205055 | 54 | 191 | 0.0 | 4.0 | 0.00 | 0.00 | 0.00 | 33 | 1006.0 |
| 20260503204552 | 53 | 243 | 4.0 | 6.0 | 0.00 | 0.00 | 0.00 | 34 | 1005.9 |
| 20260503204049 | 53 | 283 | 2.0 | 4.0 | 0.00 | 0.00 | 0.00 | 35 | 1005.9 |
| 20260503203546 | 54 | 105 | 1.0 | 3.0 | 0.00 | 0.00 | 0.00 | 35 | 1006.1 |
| 20260503203043 | 53 | 217 | 2.0 | 6.0 | 0.00 | 0.00 | 0.00 | 34 | 1006.1 |
| 20260503202541 | 54 | 172 | 0.0 | 4.0 | 0.00 | 0.00 | 0.00 | 34 | 1006.1 |
| 20260503202039 | 54 | 176 | 2.0 | 7.0 | 0.00 | 0.00 | 0.00 | 34 | 1006.2 |
| 20260503201537 | 55 | 225 | 2.0 | 6.0 | 0.00 | 0.00 | 0.00 | 33 | 1006.2 |
| 20260503201034 | 53 | 231 | 0.0 | 6.0 | 0.00 | 0.00 | 0.00 | 34 | 1006.3 |
| 20260503200530 | 54 | 289 | 2.0 | 3.0 | 0.00 | 0.00 | 0.00 | 33 | 1006.4 |
| 20260503200027 | 53 | 215 | 3.0 | 6.0 | 0.00 | 0.00 | 0.00 | 34 | 1006.3 |
| 20260503195524 | 53 | 102 | 2.0 | 8.0 | 0.00 | 0.00 | 0.00 | 34 | 1006.4 |
| 20260503195021 | 55 | 208 | 3.0 | 7.0 | 0.00 | 0.00 | 0.00 | 31 | 1006.4 |
| 20260503194518 | 55 | 171 | 2.0 | 6.0 | 0.00 | 0.00 | 0.00 | 32 | 1006.5 |
| 20260503194018 | 54 | 101 | 0.0 | 4.0 | 0.00 | 0.00 | 0.00 | 33 | 1006.7 |
| 20260503193515 | 52 | 239 | 2.0 | 7.0 | 0.00 | 0.00 | 0.00 | 34 | 1006.5 |
| 20260503193010 | 53 | 94 | 1.0 | 8.0 | 0.00 | 0.00 | 0.00 | 33 | 1006.8 |
| 20260503192506 | 54 | 223 | 3.0 | 6.0 | 0.00 | 0.00 | 0.00 | 32 | 1006.9 |
| 20260503192002 | 54 | 314 | 7.0 | 13.0 | 0.00 | 0.00 | 0.00 | 31 | 1007.1 |
| 20260503191459 | 53 | 165 | 2.0 | 7.0 | 0.00 | 0.00 | 0.00 | 32 | 1007.1 |
| 20260503190955 | 53 | 257 | 4.0 | 7.0 | 0.00 | 0.00 | 0.00 | 32 | 1007.2 |
| 20260503190453 | 53 | 193 | 4.0 | 6.0 | 0.00 | 0.00 | 0.00 | 33 | 1007.1 |
| 20260503185950 | 53 | 242 | 6.0 | 10.0 | 0.00 | 0.00 | 0.00 | 32 | 1007.2 |
| 20260503185446 | 53 | 174 | 4.0 | 8.0 | 0.00 | 0.00 | 0.00 | 32 | 1007.4 |
| 20260503184946 | 53 | 226 | 3.0 | 4.0 | 0.00 | 0.00 | 0.00 | 32 | 1007.3 |
| 20260503184443 | 55 | 220 | 2.0 | 7.0 | 0.00 | 0.00 | 0.00 | 31 | 1007.5 |
| 20260503183939 | 53 | 199 | 0.0 | 15.0 | 0.00 | 0.00 | 0.00 | 34 | 1007.4 |
| 20260503183435 | 53 | 249 | 6.0 | 8.0 | 0.00 | 0.00 | 0.00 | 31 | 1007.6 |
| 20260503182933 | 52 | 292 | 6.0 | 9.0 | 0.00 | 0.00 | 0.00 | 32 | 1007.5 |
| 20260503182431 | 53 | 185 | 0.0 | 4.0 | 0.00 | 0.00 | 0.00 | 32 | 1007.6 |
| 20260503181928 | 53 | 217 | 6.0 | 7.0 | 0.00 | 0.00 | 0.00 | 31 | 1007.8 |
| 20260503181426 | 53 | 178 | 4.0 | 7.0 | 0.00 | 0.00 | 0.00 | 31 | 1007.9 |
| 20260503180921 | 51 | 251 | 3.0 | 4.0 | 0.00 | 0.00 | 0.00 | 32 | 1007.7 |
| 20260503180420 | 52 | 236 | 6.0 | 8.0 | 0.00 | 0.00 | 0.00 | 32 | 1007.5 |
| 20260503175916 | 51 | 245 | 5.0 | 8.0 | 0.00 | 0.00 | 0.00 | 32 | 1007.8 |
| 20260503175415 | 51 | 195 | 4.0 | 8.0 | 0.00 | 0.00 | 0.00 | 31 | 1007.6 |
| 20260503174910 | 51 | 243 | 4.0 | 7.0 | 0.00 | 0.00 | 0.00 | 31 | 1007.6 |
| 20260503174408 | 52 | 139 | 1.0 | 8.0 | 0.00 | 0.00 | 0.00 | 31 | 1007.9 |
| 20260503173903 | 52 | 219 | 1.0 | 9.0 | 0.00 | 0.00 | 0.00 | 30 | 1007.9 |
| 20260503173359 | 51 | 348 | 1.0 | 3.0 | 0.00 | 0.00 | 0.00 | 31 | 1007.8 |
| 20260503172856 | 50 | 282 | 4.0 | 11.0 | 0.00 | 0.00 | 0.00 | 30 | 1008.0 |
| 20260503172353 | 51 | 237 | 3.0 | 9.0 | 0.00 | 0.00 | 0.00 | 30 | 1008.2 |
| 20260503171849 | 50 | 218 | 3.0 | 13.0 | 0.00 | 0.00 | 0.00 | 31 | 1008.3 |
| 20260503171346 | 51 | 224 | 2.0 | 6.0 | 0.00 | 0.00 | 0.00 | 31 | 1008.2 |
| 20260503170844 | 51 | 228 | 0.0 | 6.0 | 0.00 | 0.00 | 0.00 | 31 | 1008.2 |
| 20260503170340 | 51 | 270 | 7.0 | 13.0 | 0.00 | 0.00 | 0.00 | 30 | 1008.4 |
| 20260503150732 | 48 | 194 | 2.0 | 2.0 | 0.00 | 0.00 | 0.00 | 37 | 1009.7 |
| 20260503150228 | 48 | 123 | 4.0 | 6.0 | 0.00 | 0.00 | 0.00 | 37 | 1009.9 |
| 20260503140153 | 45 | 342 | 3.0 | 9.0 | 0.00 | 0.00 | 0.00 | 41 | 1010.6 |
| 20260503131122 | 42 | 224 | 0.0 | 2.0 | 0.00 | 0.00 | 0.00 | 46 | 1010.8 |
| 20260503130620 | 42 | 284 | 1.0 | 2.0 | 0.00 | 0.00 | 0.00 | 48 | 1010.8 |
| 20260503130118 | 41 | 15 | 1.0 | 6.0 | 0.00 | 0.00 | 0.00 | 48 | 1011.0 |
| 20260503110510 | 34 | 209 | 0.0 | 1.0 | 0.00 | 0.00 | 0.00 | 69 | 1011.2 |
| 20260503090402 | 32 | 225 | 0.0 | 0.0 | 0.00 | 0.00 | 0.00 | 75 | 1011.2 |
| 20260503081329 | 33 | 195 | 0.0 | 0.0 | 0.00 | 0.00 | 0.00 | 70 | 1011.0 |
| 20260503080826 | 33 | 195 | 0.0 | 0.0 | 0.00 | 0.00 | 0.00 | 71 | 1011.3 |
| 20260503080323 | 34 | 195 | 0.0 | 0.0 | 0.00 | 0.00 | 0.00 | 72 | 1011.1 |
| 20260503072759 | 34 | 264 | 0.0 | 0.0 | 0.00 | 0.00 | 0.00 | 68 | 1011.4 |
| 20260503072256 | 34 | 244 | 0.0 | 1.0 | 0.00 | 0.00 | 0.00 | 68 | 1011.1 |
| 20260503071752 | 34 | 208 | 0.0 | 1.0 | 0.00 | 0.00 | 0.00 | 67 | 1011.1 |
| 20260503071249 | 35 | 186 | 0.0 | 0.0 | 0.00 | 0.00 | 0.00 | 70 | 1011.6 |
| 20260503070745 | 35 | 237 | 0.0 | 1.0 | 0.00 | 0.00 | 0.00 | 69 | 1011.2 |
| 20260503070244 | 35 | 197 | 0.0 | 0.0 | 0.00 | 0.00 | 0.00 | 69 | 1011.2 |
| 20260503060209 | 35 | 204 | 0.0 | 0.0 | 0.00 | 0.00 | 0.00 | 69 | 1011.7 |
| 20260503054655 | 35 | 223 | 0.0 | 1.0 | 0.00 | 0.00 | 0.00 | 69 | 1011.6 |
| 20260503054153 | 35 | 248 | 1.0 | 1.0 | 0.00 | 0.00 | 0.00 | 68 | 1011.6 |
| 20260503053651 | 36 | 217 | 0.0 | 0.0 | 0.00 | 0.00 | 0.00 | 68 | 1011.8 |
| 20260503053149 | 36 | 237 | 0.0 | 0.0 | 0.00 | 0.00 | 0.00 | 67 | 1011.7 |
| 20260503052645 | 36 | 210 | 0.0 | 0.0 | 0.00 | 0.00 | 0.00 | 69 | 1011.8 |
| 20260503052141 | 36 | 215 | 0.0 | 0.0 | 0.00 | 0.00 | 0.00 | 67 | 1011.8 |
| 20260503051637 | 36 | 193 | 0.0 | 1.0 | 0.00 | 0.00 | 0.00 | 67 | 1011.9 |
| 20260503051135 | 36 | 157 | 0.0 | 0.0 | 0.00 | 0.00 | 0.00 | 70 | 1011.9 |
| 20260503050631 | 36 | 199 | 0.0 | 1.0 | 0.00 | 0.00 | 0.00 | 69 | 1011.9 |
| 20260503050128 | 36 | 206 | 0.0 | 0.0 | 0.00 | 0.00 | 0.00 | 70 | 1011.9 |
| 20260503045626 | 36 | 172 | 0.0 | 0.0 | 0.00 | 0.00 | 0.00 | 69 | 1012.1 |
| 20260503045122 | 36 | 202 | 0.0 | 1.0 | 0.00 | 0.00 | 0.00 | 69 | 1011.9 |
| 20260503044619 | 36 | 266 | 0.0 | 0.0 | 0.00 | 0.00 | 0.00 | 70 | 1012.0 |
| 20260503044117 | 36 | 231 | 0.0 | 1.0 | 0.00 | 0.00 | 0.00 | 68 | 1012.0 |
| 20260503043613 | 35 | 240 | 0.0 | 1.0 | 0.00 | 0.00 | 0.00 | 69 | 1012.0 |
| 20260503043110 | 35 | 213 | 0.0 | 0.0 | 0.00 | 0.00 | 0.00 | 76 | 1012.2 |
| 20260503042607 | 35 | 182 | 0.0 | 0.0 | 0.00 | 0.00 | 0.00 | 75 | 1012.2 |
| 20260503042103 | 35 | 194 | 0.0 | 0.0 | 0.00 | 0.00 | 0.00 | 76 | 1011.9 |
| 20260503041559 | 35 | 197 | 0.0 | 0.0 | 0.00 | 0.00 | 0.00 | 75 | 1012.1 |
| 20260503041057 | 35 | 202 | 0.0 | 0.0 | 0.00 | 0.00 | 0.00 | 75 | 1012.1 |
| 20260503040554 | 36 | 201 | 0.0 | 0.0 | 0.00 | 0.00 | 0.00 | 74 | 1012.0 |
| 20260503040051 | 36 | 201 | 0.0 | 0.0 | 0.00 | 0.00 | 0.00 | 72 | 1012.1 |
| 20260503035548 | 36 | 201 | 0.0 | 0.0 | 0.00 | 0.04 | 0.04 | 70 | 1012.1 |
| 20260503035046 | 36 | 201 | 0.0 | 0.0 | 0.00 | 0.04 | 0.04 | 70 | 1012.0 |
| 20260503034543 | 36 | 201 | 0.0 | 0.0 | 0.00 | 0.04 | 0.04 | 69 | 1012.0 |
| 20260503034040 | 36 | 201 | 0.0 | 0.0 | 0.00 | 0.04 | 0.04 | 69 | 1012.1 |
| 20260503033537 | 36 | 202 | 0.0 | 0.0 | 0.00 | 0.04 | 0.04 | 68 | 1012.2 |
| 20260503033035 | 37 | 202 | 0.0 | 0.0 | 0.00 | 0.04 | 0.04 | 67 | 1012.2 |
| 20260503032533 | 37 | 202 | 0.0 | 0.0 | 0.00 | 0.04 | 0.04 | 66 | 1012.3 |
| 20260503032031 | 37 | 203 | 0.0 | 0.0 | 0.00 | 0.04 | 0.04 | 66 | 1012.2 |
| 20260503031528 | 37 | 205 | 0.0 | 0.0 | 0.00 | 0.04 | 0.04 | 67 | 1012.1 |
| 20260503031025 | 37 | 234 | 0.0 | 0.0 | 0.00 | 0.04 | 0.04 | 67 | 1012.1 |
| 20260503030521 | 37 | 235 | 0.0 | 0.0 | 0.00 | 0.04 | 0.04 | 67 | 1012.1 |
| 20260503030019 | 37 | 235 | 0.0 | 0.0 | 0.00 | 0.04 | 0.04 | 66 | 1012.5 |
| 20260503025515 | 37 | 235 | 0.0 | 0.0 | 0.00 | 0.04 | 0.04 | 67 | 1012.2 |
| 20260503025013 | 37 | 236 | 0.0 | 0.0 | 0.00 | 0.04 | 0.04 | 66 | 1012.4 |
| 20260503024509 | 37 | 239 | 0.0 | 0.0 | 0.00 | 0.04 | 0.04 | 64 | 1012.5 |
| 20260503024007 | 37 | 240 | 0.0 | 0.0 | 0.00 | 0.04 | 0.04 | 62 | 1012.4 |
| 20260503023503 | 37 | 241 | 0.0 | 0.0 | 0.00 | 0.04 | 0.04 | 61 | 1012.6 |